Tracking 20040 objects as of 18-Nov-2019
Live streaming from Space Station
objects crossing your sky now

DELTA 1 DEB

Track DELTA 1 DEB now!
10-day predictions


NORAD ID: 42568
Int'l Code: 1972-058KB
Perigee: 822.1 km
Apogee: 861.8 km
Inclination: 98.9 °
Period: 101.6 minutes
Semi major axis: 7212 km
RCS: Unknown
Launch date: July 23, 1972
Source: United States (US)
Launch site: AIR FORCE WESTERN TEST RANGE (AFWTR)

Note: This is SATELLITE DEBRIS
aabbcc
Your satellite tracking list
Your tracking list is empty




NASA's NSSDC Master Catalog

Two Line Element Set (TLE):
1 42568U 72058KB  19321.69239747 +.00000097 +00000-0 +69990-4 0  9993
2 42568 098.8726 294.3268 0027475 251.7016 108.1169 14.17208104750071
Source of the keplerian elements: AFSPC